{"data":{"norad_id":36397,"epoch":"2026-09-20T01:20:18.178944Z","epoch_age_seconds":52640,"freshness":"FRESH","line1":"1 36397U 10006A   26263.05576596 -.00000102  00000+0  00000+0 0  9999","line2":"2 36397   0.0162 256.3446 0001801 295.6633 147.6391  1.01415808 60604","mean_motion":1.01415808,"eccentricity":0.0001801,"inclination_deg":0.0162,"raan_deg":256.3446,"arg_perigee_deg":295.6633,"mean_anomaly_deg":147.6391,"bstar":0,"rev_number":6060,"period_min":1419.8969848961,"perigee_km":35461.365750183,"apogee_km":35476.439053776,"semimajor_km":41847.039401979,"source":"CELESTRAK","updated_at":"2026-09-20T09:00:35.518642Z"}}